Change the Weather History Date:

Friday, March 14, 2014

  Actual Average Record
Temperature  
Mean Temperature 24 °F -  
Max Temperature 28 °F 20 °F 30 °F (2007)
Min Temperature 19 °F 9 °F -9 °F (2013)
Degree Days  
Heating Degree Days 42    
Moisture  
Dew Point 6 °F    
Average Humidity 43    
Maximum Humidity 80    
Minimum Humidity 13    
Precipitation  
Precipitation 0.00 in - - ()
Sea Level Pressure  
Sea Level Pressure 30.35 in    
Wind  
Wind Speed 6 mph ()    
Max Wind Speed 15 mph    
Max Gust Speed -    
Visibility 9.4 miles    
Events      
Averages and records for this station are not official NWS values.
T = Trace of Precipitation, MM = Missing Value Source: Averaged Metar Reports

Daily Weather History Graph

Daily Weather History Graph

Search for Another Location

Airport or City:

Trip Planner

Search our weather history database for the weather conditions in past years. The results will help you decide how hot, cold, wet, or windy it might be!

Date:

Astronomy

Mar. 14, 2014 Rise Set
Actual Time 6:44 AM CET 6:33 PM CET
Civil Twilight 6:14 AM CET 7:03 PM CET
Nautical Twilight 5:39 AM CET 7:37 PM CET
Astronomical Twilight 5:04 AM CET 8:13 PM CET
Moon 4:35 PM CET (3/14) 5:20 AM CET (3/14)
Length of Visible Light 12h 48m
Length of Day
11h 49m
Waxing Gibbous, 95% of the Moon is Illuminated
Mar 14
Waxing Gibbous
Mar 16
Full
Mar 24
Last Quarter
Mar 30
New
Apr 7
First Quarter

Hourly Weather History & Observations

Time (CET) Temp. Windchill Dew Point Humidity Pressure Visibility Wind Dir Wind Speed Gust Speed Precip Events Conditions
12:00 AM 23 °F - 4 °F 28%  in 9 mi East 6.9 mph - -  
12:55 AM 23.0 °F 17.0 °F 5.0 °F 46% 30.42 in - SE 4.6 mph - N/A   Clear
1:00 AM 23 °F - 5 °F 31%  in 9 mi SE 4.6 mph - -  
1:55 AM 23.0 °F - 6.8 °F 50% 30.42 in - Variable 2.3 mph - N/A   Clear
2:00 AM 23 °F - 7 °F 35%  in 9 mi 2.3 mph - -  
2:55 AM 23.0 °F - 8.6 °F 54% 30.39 in - Variable 1.2 mph - N/A   Clear
3:00 AM 23 °F - 8 °F 39%  in 9 mi 1.2 mph - -  
3:55 AM 21.2 °F 12.6 °F 5.0 °F 50% 30.36 in - East 6.9 mph - N/A   Clear
4:00 AM 22 °F - 5 °F 33%  in 9 mi East 6.9 mph - -  
4:55 AM 21.2 °F 16.4 °F 6.8 °F 54% 30.36 in - Variable 3.5 mph - N/A   Clear
5:00 AM 22 °F - 6 °F 36%  in 6 mi 3.5 mph - -  
5:55 AM 21.2 °F 12.6 °F 1.4 °F 42% 30.36 in - East 6.9 mph - N/A   Clear
6:00 AM 22 °F - 2 °F 26%  in 6 mi East 6.9 mph - -  
6:55 AM 21.2 °F - 3.2 °F 46% 30.36 in - Variable 2.3 mph - N/A   Clear
7:00 AM 22 °F - 4 °F 30%  in 19 mi 2.3 mph - -  
7:55 AM 23.0 °F 14.7 °F -0.4 °F 36% 30.36 in - East 6.9 mph - N/A   Clear
8:00 AM 23 °F - -1 °F 21%  in 37 mi East 6.9 mph - -  
8:55 AM 24.8 °F 16.1 °F -5.8 °F 26% 30.36 in - NE 8.1 mph - N/A   Clear
9:00 AM 25 °F - -5 °F 13%  in 37 mi NE 8.1 mph - -  
9:55 AM 26.6 °F - -4.0 °F 26% 30.36 in - Variable 2.3 mph - N/A   Clear
10:00 AM 26 °F - -4 °F 14%  in 37 mi 2.3 mph - -  
10:55 AM 24.8 °F 20.5 °F -2.2 °F 31% 30.36 in - ENE 3.5 mph - N/A   Clear
11:00 AM 26 °F - -2 °F 15%  in 37 mi ENE 3.5 mph - -  
11:55 AM 26.6 °F 21.2 °F -0.4 °F 31% 30.36 in - ENE 4.6 mph - N/A   Clear
12:00 PM 26 °F - 0 °F 18%  in 37 mi ENE 4.6 mph - -  
12:55 PM 26.6 °F 22.6 °F -0.4 °F 31% 30.36 in - NNE 3.5 mph - N/A   Clear
1:00 PM 26 °F - -1 °F 17%  in 37 mi NNE 3.5 mph - -  
1:55 PM 28.4 °F 22.2 °F 14.0 °F 55% 30.36 in - SW 5.8 mph - N/A   Clear
2:00 PM 28 °F - 15 °F 45%  in 37 mi SW 5.8 mph - -  
2:55 PM 26.6 °F - 14.0 °F 59% 30.36 in - Variable 2.3 mph - N/A   Clear
3:00 PM 27 °F - 15 °F 46%  in 47 mi 2.3 mph - -  
3:55 PM 23.0 °F 13.1 °F 10.4 °F 59% 30.33 in - NE 9.2 mph - N/A   Clear
4:00 PM 23 °F - 10 °F 45%  in 47 mi NE 9.2 mph - -  
4:55 PM 21.2 °F 8.3 °F 12.2 °F 68% 30.30 in - NE 13.8 mph - N/A   Clear
5:00 PM 22 °F - 12 °F 52%  in 31 mi NE 13.8 mph - -  
5:55 PM 21.2 °F 9.5 °F 12.2 °F 68% 30.30 in - NE 11.5 mph - N/A   Clear
6:00 PM 21 °F - 12 °F 55%  in 31 mi NE 11.5 mph - -  
6:55 PM 21.2 °F 10.1 °F 10.4 °F 63% 30.33 in - ENE 10.4 mph - N/A   Clear
7:00 PM 22 °F - 10 °F 46%  in 19 mi ENE 10.4 mph - -  
7:55 PM 19.4 °F 5.5 °F 12.2 °F 74% 30.33 in - ENE 15.0 mph - N/A   Clear
8:00 PM 20 °F - 11 °F 58%  in 9 mi ENE 15.0 mph - -  
8:55 PM 19.4 °F 6.6 °F 14.0 °F 80% 30.30 in - ENE 12.7 mph - N/A   Clear
9:00 PM 19 °F - 14 °F 74%  in 6 mi ENE 12.7 mph - -  
9:55 PM 19.4 °F 7.9 °F 14.0 °F 80% 30.33 in - ENE 10.4 mph - N/A   Clear
10:00 PM 19 °F - 13 °F 69%  in 6 mi ENE 10.4 mph - -  
10:55 PM 23.0 °F 13.1 °F 3.2 °F 43% 30.33 in - ENE 9.2 mph - N/A   Clear
11:00 PM 23 °F - 3 °F 26%  in 6 mi ENE 9.2 mph - -  
11:55 PM 23.0 °F 12.4 °F 1.4 °F 39% 30.30 in - ENE 10.4 mph - N/A   Clear